CW6726 Weather Reports


time (UTC)temp
C
wind
direction
speed
KPH
gust
KPH
rain 1hr
cm
rain 24hr
cm
rain mn
cm
humidity
%
barometer
mb
20260508032105 8 146 0.0 0.0 0.00 0.00 0.00 90 1012.7
20260508031605 8 146 0.0 0.0 0.00 0.00 0.00 90 1012.7
20260508030605 8 146 0.0 0.0 0.00 0.00 0.00 90 1012.7
20260508030105 8 146 0.0 0.0 0.00 0.00 0.00 90 1012.7
20260508025605 8 146 0.0 0.0 0.00 0.00 0.00 90 1012.7
20260508025105 8 146 0.0 0.0 0.00 0.00 0.00 90 1012.7
20260508024605 7 146 0.0 0.0 0.00 0.00 0.00 90 1012.7
20260508023105 7 146 0.0 0.0 0.00 0.00 0.00 90 1012.7
20260508022605 7 146 0.0 0.0 0.00 0.00 0.00 90 1012.7
20260508021105 7 146 0.0 0.0 0.00 0.00 0.00 90 1012.7
20260508020605 7 146 0.0 0.0 0.00 0.00 0.00 90 1012.7
20260508020105 7 146 0.0 0.0 0.00 0.00 0.00 90 1012.7
20260508015605 7 146 0.0 0.0 0.00 0.00 0.00 90 1012.7
20260508014605 7 146 0.0 0.0 0.00 0.00 0.00 90 1012.7
20260508014105 7 146 0.0 0.0 0.00 0.00 0.00 90 1012.7
20260508013106 7 146 0.0 0.0 0.00 0.00 0.00 90 1012.7
20260508012104 7 146 0.0 0.0 0.00 0.00 0.00 90 1012.8
20260508011604 7 146 0.0 0.0 0.00 0.00 0.00 90 1012.8
20260508010605 7 146 0.0 0.0 0.00 0.00 0.00 89 1012.9
20260508010106 7 146 0.0 0.0 0.00 0.00 0.00 89 1012.9
20260508005605 7 146 0.0 0.0 0.00 0.00 0.00 89 1012.9
20260508004104 7 146 0.0 0.0 0.00 0.00 0.00 89 1012.9
20260508003605 7 146 0.0 0.0 0.00 0.00 0.00 89 1012.9
20260508002605 7 146 0.0 0.0 0.00 0.00 0.00 89 1013.0
20260508002105 7 146 0.0 0.0 0.00 0.00 0.00 89 1013.0
20260508000105 7 146 0.0 0.0 0.00 0.00 0.00 89 1013.0
20260507235605 7 146 0.0 0.0 0.00 0.00 0.00 88 1013.1
20260507234105 7 146 0.0 0.0 0.00 0.00 0.00 88 1013.2
20260507232605 7 146 0.0 0.0 0.00 0.00 0.00 88 1013.3
20260507231108 7 146 0.0 0.0 0.00 0.00 0.00 88 1013.3
20260507230605 7 146 0.0 0.0 0.00 0.00 0.00 88 1013.3
20260507225105 7 146 0.0 1.6 0.00 0.00 0.00 87 1013.4
20260507224605 7 146 0.0 0.0 0.00 0.00 0.00 87 1013.3
20260507224105 7 146 0.0 0.0 0.00 0.00 0.00 87 1013.3
20260507222605 6 146 0.0 0.0 0.00 0.00 0.00 86 1013.4
20260507221605 6 146 0.0 0.0 0.00 0.00 0.00 86 1013.4
20260507220605 6 146 0.0 0.0 0.00 0.00 0.00 86 1013.4
20260507214605 7 146 0.0 0.0 0.00 0.00 0.00 85 1013.5
20260507214105 7 146 0.0 0.0 0.00 0.00 0.00 85 1013.6
20260507212605 7 146 0.0 0.0 0.00 0.00 0.00 85 1013.5
20260507212104 7 146 0.0 1.6 0.00 0.00 0.00 84 1013.6
20260507211104 7 146 0.0 1.6 0.00 0.00 0.00 84 1013.5
20260507210106 7 146 0.0 1.6 0.00 0.00 0.00 83 1013.3
20260507205605 7 146 0.0 0.0 0.00 0.00 0.00 83 1013.3
20260507204605 7 146 0.0 0.0 0.00 0.00 0.00 82 1013.2
20260507203605 7 146 0.0 0.0 0.00 0.00 0.00 81 1013.4
20260507203105 7 146 0.0 0.0 0.00 0.00 0.00 81 1013.4
20260507202605 7 146 0.0 0.0 0.00 0.00 0.00 80 1013.4
20260507194105 10 146 0.0 0.0 0.00 0.00 0.00 74 1012.8
20260507193105 11 146 0.0 0.0 0.00 0.00 0.00 72 1012.7
20260507192606 11 146 0.0 0.0 0.00 0.00 0.00 71 1012.7
20260507192104 12 146 0.0 0.0 0.00 0.00 0.00 70 1012.6
20260507191106 12 146 0.0 0.0 0.00 0.00 0.00 69 1012.5
20260507190105 12 146 0.0 0.0 0.00 0.00 0.00 67 1012.4
20260507184604 13 146 1.6 8.0 0.00 0.00 0.00 64 1012.4
20260507184105 13 144 0.0 1.6 0.00 0.00 0.00 64 1012.4
20260507183105 13 144 0.0 0.0 0.00 0.00 0.00 64 1012.4
20260507181105 14 147 0.0 3.2 0.00 0.00 0.00 64 1012.3
20260507175605 14 148 1.6 8.0 0.00 0.00 0.00 63 1012.3
20260507175104 14 146 0.0 4.8 0.00 0.00 0.00 62 1012.2
20260507174606 14 147 0.0 3.2 0.00 0.00 0.00 63 1012.2
20260507173605 15 151 0.0 4.8 0.00 0.00 0.00 61 1012.2
20260507173104 15 150 0.0 8.0 0.00 0.00 0.00 62 1012.1
20260507172604 15 116 0.0 3.2 0.00 0.00 0.00 62 1012.1
20260507172105 14 116 0.0 3.2 0.00 0.00 0.00 62 1012.2
20260507171605 14 116 0.0 4.8 0.00 0.00 0.00 62 1012.2
20260507165105 15 198 0.0 0.0 0.00 0.00 0.00 62 1012.3
20260507164105 15 198 0.0 4.8 0.00 0.00 0.00 63 1012.3
20260507163604 15 198 0.0 1.6 0.00 0.00 0.00 62 1012.3
20260507163105 15 198 0.0 0.0 0.00 0.00 0.00 62 1012.3
20260507162104 15 161 0.0 4.8 0.00 0.00 0.00 61 1012.3
20260507161605 15 223 0.0 8.0 0.00 0.00 0.00 61 1012.3
20260507161105 15 223 3.2 9.7 0.00 0.00 0.00 61 1012.3
20260507160605 15 221 1.6 9.7 0.00 0.00 0.00 61 1012.3
20260507160105 15 186 1.6 9.7 0.00 0.00 0.00 59 1012.3
20260507155604 15 132 0.0 4.8 0.00 0.00 0.00 59 1012.3
20260507155105 16 131 0.0 8.0 0.00 0.00 0.00 58 1012.4
20260507154105 16 186 3.2 8.0 0.00 0.00 0.00 59 1012.4
20260507151605 15 205 1.6 4.8 0.00 0.00 0.00 63 1012.6
20260507144604 14 209 1.6 9.7 0.00 0.00 0.00 64 1012.6
20260507144105 14 209 8.0 11.3 0.00 0.00 0.00 64 1012.6
20260507143105 14 207 0.0 0.0 0.00 0.00 0.00 65 1012.7
20260507142105 14 207 0.0 3.2 0.00 0.00 0.00 65 1012.8
20260507141605 14 207 0.0 1.6 0.00 0.00 0.00 65 1012.8
20260507135604 14 207 1.6 9.7 0.00 0.00 0.00 64 1012.8
20260507135105 14 209 0.0 1.6 0.00 0.00 0.00 64 1012.7
20260507134105 15 209 1.6 4.8 0.00 0.00 0.00 64 1012.7
20260507133605 15 209 1.6 8.0 0.00 0.00 0.00 64 1012.7
20260507133105 15 209 0.0 0.0 0.00 0.00 0.00 64 1012.7
20260507132105 15 209 0.0 3.2 0.00 0.00 0.00 62 1012.7
20260507131105 15 209 0.0 4.8 0.00 0.00 0.00 62 1012.8
20260507130605 15 209 0.0 11.3 0.00 0.00 0.00 61 1012.8
20260507130105 16 196 1.6 12.9 0.00 0.00 0.00 59 1012.8
20260507123605 15 193 0.0 0.0 0.00 0.00 0.00 61 1012.9
20260507123105 15 193 0.0 1.6 0.00 0.00 0.00 62 1013.0
20260507121104 15 169 1.6 4.8 0.00 0.00 0.00 64 1013.0
20260507120105 15 175 1.6 4.8 0.00 0.00 0.00 63 1013.0
20260507115105 15 139 3.2 8.0 0.00 0.00 0.00 62 1012.9
20260507113605 15 194 0.0 4.8 0.00 0.00 0.00 61 1013.0
20260507112605 15 194 0.0 4.8 0.00 0.00 0.00 61 1013.0
20260507112105 15 194 0.0 0.0 0.00 0.00 0.00 60 1013.0
20260507111105 15 194 0.0 0.0 0.00 0.00 0.00 60 1013.0
20260507110605 15 194 0.0 0.0 0.00 0.00 0.00 61 1013.1
20260507110106 15 194 0.0 4.8 0.00 0.00 0.00 59 1013.1
20260507105105 16 194 0.0 1.6 0.00 0.00 0.00 53 1013.1
20260507104606 16 194 1.6 4.8 0.00 0.00 0.00 52 1013.1
20260507104104 16 194 0.0 3.2 0.00 0.00 0.00 54 1013.1
20260507103605 17 192 0.0 9.7 0.00 0.00 0.00 54 1013.1
20260507102605 17 182 1.6 4.8 0.00 0.00 0.00 53 1013.2
20260507101605 16 181 0.0 8.0 0.00 0.00 0.00 58 1013.2
20260507095604 15 46 0.0 3.2 0.00 0.00 0.00 63 1013.2
20260507095105 15 47 0.0 8.0 0.00 0.00 0.00 64 1013.2
20260507094604 14 157 0.0 0.0 0.00 0.00 0.00 68 1013.2
20260507094106 14 157 0.0 1.6 0.00 0.00 0.00 65 1013.2
20260507091105 13 202 3.2 9.7 0.00 0.00 0.00 70 1013.3
20260507090105 13 273 1.6 4.8 0.00 0.00 0.00 72 1013.4
20260507084605 12 19 0.0 4.8 0.00 0.00 0.00 76 1013.3
20260507083605 12 19 0.0 1.6 0.00 0.00 0.00 79 1013.3
20260507083105 12 19 0.0 4.8 0.00 0.00 0.00 80 1013.2
20260507082105 11 22 1.6 8.0 0.00 0.00 0.00 85 1013.1
20260507081605 11 22 0.0 4.8 0.00 0.00 0.00 86 1013.2
20260507080605 10 28 1.6 8.0 0.00 0.00 0.00 88 1013.2
20260507080105 10 28 0.0 4.8 0.00 0.00 0.00 89 1013.2
20260507075605 10 28 3.2 4.8 0.00 0.00 0.00 89 1013.2
20260507075104 9 32 0.0 4.8 0.00 0.00 0.00 90 1013.2
20260507074105 8 32 1.6 4.8 0.00 0.00 0.00 90 1013.2
20260507073605 8 32 1.6 4.8 0.00 0.00 0.00 90 1013.2
20260507073105 8 32 1.6 4.8 0.00 0.00 0.00 91 1013.2
20260507072605 8 32 1.6 4.8 0.00 0.00 0.00 91 1013.2
20260507072104 8 32 0.0 4.8 0.00 0.00 0.00 91 1013.2
20260507071104 7 32 0.0 4.8 0.00 0.00 0.00 92 1013.2
20260507070605 7 32 1.6 4.8 0.00 0.00 0.00 92 1013.2
20260507070105 7 32 0.0 1.6 0.00 0.00 0.00 92 1013.1
20260507065104 6 32 0.0 0.0 0.00 0.00 0.00 92 1013.2
20260507061104 3 32 0.0 0.0 0.00 0.00 0.00 92 1013.1
20260507060105 3 32 0.0 0.0 0.00 0.00 0.00 91 1012.9
20260507055105 3 32 0.0 0.0 0.00 0.00 0.00 91 1012.9
20260507054604 3 32 0.0 0.0 0.00 0.00 0.00 91 1013.0
20260507053105 2 32 0.0 0.0 0.00 0.00 0.00 91 1012.9
20260507052604 2 32 0.0 0.0 0.00 0.00 0.00 91 1012.8
20260507052105 2 32 0.0 0.0 0.00 0.00 0.00 91 1012.8
20260507051604 2 32 0.0 0.0 0.00 0.00 0.00 91 1012.8
20260507050105 2 32 0.0 0.0 0.00 0.00 0.00 91 1012.7
20260507045605 2 32 0.0 0.0 0.00 0.00 0.00 91 1012.7
20260507044605 2 32 0.0 0.0 0.00 0.00 0.00 91 1012.7
20260507042105 2 32 0.0 0.0 0.00 0.00 0.00 90 1012.7
20260507040107 2 32 0.0 0.0 0.00 0.00 0.00 90 1012.7
20260507035605 2 32 0.0 0.0 0.00 0.00 0.00 90 1012.7
20260507035105 2 32 0.0 0.0 0.00 0.00 0.00 90 1012.7
20260507034605 2 32 0.0 0.0 0.00 0.00 0.00 90 1012.7